General Ignacio P Garcia International Airport
MMHO : now visible

Airfield :











YOU CAN JOIN US ON...

 
LOGIN :

Register | Disclaimer

   EN    FR    IT 

 









Legend :    VFR   Marginal VFR   IFR   Intensive IFR   Very Intensive IFR
Visi :
Ceiling :
>= 8 km
>= 3000ft
5 to 8 km
1000 to 3000 ft
1500m to 5 km
500 to 1000 ft
800 to 1500m
200 to 500 ft
< 800m
< 200 ft
Symbols :   Thunderstorms  Fog  Heavy snow  Heavy precipitations  Wind > 20 kt






- Airport Elevation : 627 ft
- IATA code : HMO


MMHO - General Ignacio P Garcia International

CURRENT METAR :
  • 270240Z 26005KT 10SM SKC 19/10 A3006 RMK SLP182 52013 900 HZY

EXPIRED METARs :
  • 270140Z 26004KT 10SM SKC 21/09 A3004 RMK CI N
  • 270040Z 26004KT 10SM SKC 24/09 A3002 RMK CI N

TAF TAF MMHO
Valid from the 26 at 18:00 until the 27 at 18:00 UTC


261708Z 2618/2718 24015KT P6SM SKC
BECMG 2702/2703 00000KT
FM271600 30010KT P6SM SKC



MET'MAP, your aeronautical weather chart ! - Copyright ORBIFLY December 2007 - Disclaimer

ORBIFLY MET'MAP TEAM :

Programming & Development : Alexandra Zaïnal
Concept & original design : Baudouin d'Aumeries
Assistance for programming : Marc-Olivier Méhu
Technical & hardware support : Manuel Goepfert

Contact : metmap@orbifly.com




SOURCES & CREDITS :

   NOAA       Earth
Advisory